Flag for Guinea-Bissau Weather past 2 weeks in Bissau, Guinea-Bissau

Now
72 °F

Clear.


Feels Like: 67 °F
Forecast: 73 / 89 °F
Wind: 2 mph from North

Location: Ziguinchor Airport


UV Index: 10 (Very high)

Visibility: 5 mi


Pressure: 29.89 "Hg

Humidity: 94%

Dew point: 70 °F

Location of BissauLocation

Historic Weather in Bissau

°F

Bissau temperature yesterday

Maximum temperature yesterday: 99 °F (at 3:00 PM)
Minimum temperature yesterday: 73 °F (at 6:00 AM)
Average temperature yesterday: 84 °F

Past Weeks' High & Low Weather Summary

 TemperatureHumidityPressure
High104 °F (Apr 14, 4:00 PM)100% (Apr 7, 7:00 AM)29.98 "Hg (Apr 7, 7:00 AM)
Low63 °F (Apr 7, 7:00 AM)16% (Apr 6, 3:00 PM)29.74 "Hg (Apr 14, 5:00 PM)
Average81 °F63%29.87 "Hg
* Reported Apr 6 8:00 AM — Apr 21 7:00 AM, Bissau, Weather by CustomWeather, © 2014

Note: Actual official high and low records may vary slightly from our data, if they occured in-between our weather recording intervals... More about our weather records

Advertising

Historic Weather Conditions — Data for Previous 24 hours

 ConditionsComfort  
Time TempWeatherWind HumidityBarometerVisibility
7:00 AM
Apr 21
70 °FSunny.No wind100%29.83 "Hg10 mi
6:00 AM70 °FClear.2 mph100%29.86 "Hg10 mi
3:00 AM72 °FClear.5 mph94%29.83 "Hg10 mi
12:00 AM75 °FClear.5 mph83%29.86 "Hg10 mi
11:00 PM
Apr 20
N/AClear.7 mphN/A29.86 "Hg10 mi
10:00 PM77 °FClear.9 mph79%29.83 "Hg10 mi
9:00 PM81 °FClear.9 mph70%29.83 "Hg10 mi
8:00 PM84 °FClear.7 mph62%29.83 "Hg10 mi
7:00 PM86 °FClear.5 mph52%29.86 "Hg5 mi
6:00 PM91 °FSunny.7 mph44%29.83 "Hg10 mi
5:00 PM93 °FSunny.9 mph41%29.83 "Hg10 mi
4:00 PM97 °FSunny.9 mph34%29.83 "Hg10 mi
3:00 PM99 °FSunny.7 mph33%29.83 "Hg10 mi
1:00 PM97 °FSunny.7 mph34%29.86 "Hg10 mi
12:00 PM88 °FSunny.2 mph52%29.89 "Hg10 mi
9:00 AM79 °FSunny.5 mph79%29.89 "Hg10 mi
8:00 AM73 °FSunny.5 mph94%29.89 "Hg10 mi
Weather by CustomWeather, © 2014

See weather overview